Regional Weather Roundup
Issued by NWS Cleveland, OH

Home | Current Version | Previous Version | Graphics & Text | Print | Product List | Glossary On
Versions: 1 2 3 4 5 6 7 8 9 10 11 12 13 14 15 16 17 18 19 20 21 22 23 24 25 26 27 28 29 30 31 32 33 34 35 36 37 38 39 40 41 42 43 44 45 46 47 48 49 50
000
ASUS41 KCLE 251502
RWRCLE
OHIO REGIONAL WEATHER ROUNDUP
NATIONAL WEATHER SERVICE CLEVELAND, OH
1100 AM EDT SAT APR 25 2015

NOTE: "FAIR" INDICATES FEW OR NO CLOUDS BELOW 12,000 FEET WITH NO
SIGNIFICANT WEATHER AND/OR OBSTRUCTIONS TO VISIBILITY.

OHZ001>008-015>018-024>027-034-035-043-044-251600-
   NORTHWEST OHIO

CITY           SKY/WX    TMP DP  RH WIND       PRES   REMARKS
DEFIANCE       CLOUDY    45  39  79 E13       29.85F
FINDLAY        CLOUDY    46  37  71 E16       29.85F
TOLEDO EXPRESS CLOUDY    45  38  76 E15       29.87F
TOLEDO EXEC    CLOUDY    46  38  73 E10       29.90F
LIMA           LGT RAIN  44  35  70 E15       29.83F
$$

OHZ009>014-019>023-028>033-038-089-251600-
   NORTHEAST OHIO

CITY           SKY/WX    TMP DP  RH WIND       PRES   REMARKS
CLE-HOPKINS    CLOUDY    47  32  56 E8        29.94F
CLE-LAKEFRONT  CLOUDY    45  35  68 N13       29.92F
CUY CO. ARPT   CLOUDY    48  28  46 NE9       29.93S
LORAIN-ELYRIA  CLOUDY    44  36  73 E7        29.92S
ASHTABULA      CLOUDY    44  20  38 VRB6      29.94F
AKRON-CANTON   CLOUDY    44  35  70 SE7       29.90S
WOOSTER        CLOUDY    42  35  76 SE9       29.91S
MANSFIELD      CLOUDY    42  36  79 E9        29.87F
YOUNGSTOWN     CLOUDY    44  23  43 SE6       29.91F
$$

OHZ042-051>053-060>062-070>072-077>081-251600-
  SOUTHWEST OHIO

CITY           SKY/WX    TMP DP  RH WIND       PRES   REMARKS
CINC-COVINGTON LGT RAIN  49  44  83 E9        29.73F
CINC-LUNKEN    RAIN      49  43  80 E6        29.75F
HAMILTON       LGT RAIN  51  38  60 E9        29.75F
DAYTON         LGT RAIN  48  33  56 E14       29.79F
WRIGHT-PAT AFB CLOUDY    46  32  57 E12       29.79F
DAYTON GENERAL CLOUDY    50  34  54 E13       29.76F
WILMINGTON     CLOUDY    48  32  53 E12G18    29.77F
$$

OHZ036-037-039>041-045>050-054>059-063>069-073>076-082>088-251600-
  CENTRAL AND SOUTHEAST OHIO

CITY           SKY/WX    TMP DP  RH WIND       PRES   REMARKS
COLUMBUS       CLOUDY    47  28  47 E13G18    29.84F
OSU AIRPORT    CLOUDY    47  26  44 E12       29.84F
BOLTON FIELD   CLOUDY    46  27  46 E14       29.82F
RICKENBACK AFB NOT AVBL
NEWARK         CLOUDY    48  28  46 E12       29.85F
MARION         CLOUDY    44  34  67 E13       29.86F
LANCASTER      CLOUDY    46  26  45 E10       29.84F
ZANESVILLE     CLOUDY    44  27  51 E14       29.87F
NEW PHILLY     CLOUDY    46  33  60 E6        29.90F
$$



USA.gov is the U.S. government's official web portal to all federal, state and local government web resources and services.